Eastabuchie, MS

4:13 AM CDT on September 26, 2016 (GMT -0500)
Hattiesburg-Laurel Regional

Weather History for KPIB - April, 2014

Change the Weather History Date:

Thursday, April 3, 2014

  Actual Average Record
Temperature  
Mean Temperature 73 °F -  
Max Temperature 80 °F 72 °F 87 °F (2006)
Min Temperature 66 °F 51 °F 35 °F (2005)
Cooling Degree Days 8    
Growing Degree Days 23 (Base 50)    
Moisture  
Dew Point 62 °F    
Average Humidity 71    
Maximum Humidity 88    
Minimum Humidity 48    
Precipitation  
Precipitation 0.00 in - - ()
Sea Level Pressure  
Sea Level Pressure 29.98 in    
Wind  
Wind Speed 12 mph (South)    
Max Wind Speed 25 mph    
Max Gust Speed 33 mph    
Visibility 10 miles    
Events      
Averages and records for this station are not official NWS values.
T = Trace of Precipitation, MM = Missing Value Source: NWS Daily Summary

Daily Weather History Graph

Daily Weather History Graph

Search for Another Location

Airport or City:

Trip Planner

Search our weather history database for the weather conditions in past years. The results will help you decide how hot, cold, wet, or windy it might be!

Date:

Astronomy

Apr. 03, 2014 Rise Set
Actual Time 6:43 AM CDT 7:18 PM CDT
Civil Twilight 6:18 AM CDT 7:42 PM CDT
Nautical Twilight 5:50 AM CDT 8:11 PM CDT
Astronomical Twilight 5:20 AM CDT 8:40 PM CDT
Moon 9:24 AM CDT (4/3) 11:24 PM CDT (4/3)
Length of Visible Light 13h 23m
Length of Day
12h 34m
Waxing Crescent, 17% of the Moon is Illuminated
Apr 3
Waxing Crescent
Apr 7
First Quarter
Apr 15
Full
Apr 22
Last Quarter
Apr 29
New

Hourly Weather History & Observations

Time (CDT) Temp. Heat Index Dew Point Humidity Pressure Visibility Wind Dir Wind Speed Gust Speed Precip Events Conditions
12:15 AM 66.2 °F - 62.6 °F 88% 30.03 in 10.0 mi SSE 11.5 mph 20.7 mph N/A   Overcast
12:35 AM 68.0 °F - 62.6 °F 83% 30.03 in 10.0 mi South 11.5 mph - N/A   Overcast
12:55 AM 68.0 °F - 62.6 °F 83% 30.03 in 10.0 mi South 10.4 mph - N/A   Overcast
1:15 AM 68.0 °F - 62.6 °F 83% 30.03 in 10.0 mi South 10.4 mph - N/A   Overcast
1:35 AM 68.0 °F - 62.6 °F 83% 30.03 in 10.0 mi South 9.2 mph - N/A   Overcast
1:55 AM 68.0 °F - 62.6 °F 83% 30.02 in 10.0 mi SSE 9.2 mph - N/A   Overcast
2:15 AM 68.0 °F - 62.6 °F 83% 30.01 in 10.0 mi South 9.2 mph - N/A   Overcast
2:35 AM 68.0 °F - 62.6 °F 83% 30.01 in 8.0 mi South 10.4 mph - N/A   Overcast
2:55 AM 68.0 °F - 62.6 °F 83% 30.00 in 10.0 mi South 8.1 mph 16.1 mph N/A   Overcast
3:15 AM 68.0 °F - 62.6 °F 83% 30.00 in 10.0 mi South 9.2 mph - N/A   Overcast
3:35 AM 68.0 °F - 62.6 °F 83% 30.00 in 10.0 mi South 9.2 mph - N/A   Overcast
3:55 AM 68.0 °F - 64.4 °F 88% 30.00 in 10.0 mi South 9.2 mph - N/A   Overcast
4:15 AM 69.8 °F - 64.4 °F 83% 30.00 in 10.0 mi South 6.9 mph - N/A   Overcast
4:35 AM 69.8 °F - 64.4 °F 83% 30.00 in 10.0 mi South 9.2 mph - N/A   Overcast
4:55 AM 69.8 °F - 64.4 °F 83% 30.00 in 10.0 mi South 10.4 mph - N/A   Overcast
5:15 AM 69.8 °F - 64.4 °F 83% 30.00 in 10.0 mi South 9.2 mph - N/A   Overcast
5:35 AM 69.8 °F - 64.4 °F 83% 30.00 in 10.0 mi South 5.8 mph - N/A   Overcast
5:55 AM 69.8 °F - 64.4 °F 83% 30.00 in 10.0 mi South 6.9 mph - N/A   Overcast
6:15 AM 69.8 °F - 64.4 °F 83% 30.01 in 10.0 mi SSW 5.8 mph - N/A   Overcast
6:35 AM 69.8 °F - 64.4 °F 83% 30.01 in 10.0 mi South 8.1 mph - N/A   Overcast
6:55 AM 69.8 °F - 64.4 °F 83% 30.02 in 10.0 mi South 8.1 mph - N/A   Overcast
7:15 AM 69.8 °F - 64.4 °F 83% 30.01 in 10.0 mi South 8.1 mph - N/A   Mostly Cloudy
7:35 AM 69.8 °F - 64.4 °F 83% 30.01 in 10.0 mi South 8.1 mph - N/A   Mostly Cloudy
7:55 AM 69.8 °F - 64.4 °F 83% 30.01 in 10.0 mi South 10.4 mph 16.1 mph N/A   Mostly Cloudy
8:15 AM 71.6 °F - 64.4 °F 78% 30.01 in 10.0 mi South 11.5 mph - N/A   Mostly Cloudy
8:35 AM 71.6 °F - 64.4 °F 78% 30.01 in 10.0 mi South 13.8 mph - N/A   Overcast
8:55 AM 71.6 °F - 64.4 °F 78% 30.01 in 10.0 mi South 12.7 mph 25.3 mph N/A   Mostly Cloudy
9:15 AM 71.6 °F - 64.4 °F 78% 30.02 in 10.0 mi South 12.7 mph 20.7 mph N/A   Mostly Cloudy
9:35 AM 71.6 °F - 64.4 °F 78% 30.01 in 10.0 mi South 16.1 mph 21.9 mph N/A   Scattered Clouds
9:55 AM 73.4 °F - 64.4 °F 73% 30.02 in 10.0 mi South 19.6 mph 25.3 mph N/A   Mostly Cloudy
10:15 AM 75.2 °F - 62.6 °F 65% 30.02 in 10.0 mi South 17.3 mph 23.0 mph N/A   Overcast
10:35 AM 75.2 °F - 62.6 °F 65% 30.01 in 10.0 mi South 17.3 mph 29.9 mph N/A   Mostly Cloudy
10:55 AM 77.0 °F - 62.6 °F 61% 30.01 in 10.0 mi South 25.3 mph 33.4 mph N/A   Mostly Cloudy
11:15 AM 77.0 °F - 62.6 °F 61% 30.00 in 10.0 mi South 19.6 mph 25.3 mph N/A   Mostly Cloudy
11:35 AM 78.8 °F - 62.6 °F 57% 30.00 in 10.0 mi South 17.3 mph 28.8 mph N/A   Mostly Cloudy
11:55 AM 78.8 °F - 60.8 °F 54% 30.00 in 10.0 mi South 17.3 mph 28.8 mph N/A   Mostly Cloudy
12:15 PM 78.8 °F - 60.8 °F 54% 29.99 in 10.0 mi South 20.7 mph 31.1 mph N/A   Mostly Cloudy
12:35 PM 78.8 °F - 60.8 °F 54% 29.99 in 10.0 mi South 23.0 mph 27.6 mph N/A   Mostly Cloudy
12:55 PM 78.8 °F - 60.8 °F 54% 29.99 in 10.0 mi South 16.1 mph 25.3 mph N/A   Mostly Cloudy
1:15 PM 80.6 °F 81.5 °F 60.8 °F 51% 29.98 in 10.0 mi South 20.7 mph 26.5 mph N/A   Mostly Cloudy
1:35 PM 80.6 °F 81.5 °F 60.8 °F 51% 29.97 in 10.0 mi South 20.7 mph 27.6 mph N/A   Mostly Cloudy
1:55 PM 80.6 °F 81.5 °F 60.8 °F 51% 29.97 in 10.0 mi South 19.6 mph 28.8 mph N/A   Mostly Cloudy
2:15 PM 80.6 °F 81.1 °F 59.0 °F 48% 29.97 in 10.0 mi South 18.4 mph 29.9 mph N/A   Mostly Cloudy
2:35 PM 80.6 °F 81.5 °F 60.8 °F 51% 29.97 in 10.0 mi South 17.3 mph 23.0 mph N/A   Mostly Cloudy
2:55 PM 80.6 °F 81.1 °F 59.0 °F 48% 29.96 in 10.0 mi South 12.7 mph 26.5 mph N/A   Scattered Clouds
3:15 PM 78.8 °F - 59.0 °F 51% 29.96 in 10.0 mi South 15.0 mph 24.2 mph N/A   Scattered Clouds
3:35 PM 80.6 °F 81.1 °F 59.0 °F 48% 29.95 in 10.0 mi South 16.1 mph 24.2 mph N/A   Scattered Clouds
3:55 PM 78.8 °F - 60.8 °F 54% 29.95 in 10.0 mi South 18.4 mph 23.0 mph N/A   Scattered Clouds
4:15 PM 78.8 °F - 60.8 °F 54% 29.95 in 10.0 mi South 18.4 mph 23.0 mph N/A   Mostly Cloudy
4:35 PM 77.0 °F - 60.8 °F 57% 29.96 in 10.0 mi South 15.0 mph 21.9 mph N/A   Mostly Cloudy
4:55 PM 78.8 °F - 60.8 °F 54% 29.96 in 10.0 mi South 17.3 mph 23.0 mph N/A   Mostly Cloudy
5:15 PM 78.8 °F - 60.8 °F 54% 29.94 in 10.0 mi South 12.7 mph - N/A   Partly Cloudy
5:35 PM 77.0 °F - 60.8 °F 57% 29.94 in 10.0 mi South 13.8 mph - N/A   Clear
5:55 PM 75.2 °F - 60.8 °F 61% 29.94 in 10.0 mi South 11.5 mph - N/A   Clear
6:15 PM 75.2 °F - 62.6 °F 65% 29.95 in 10.0 mi South 10.4 mph 17.3 mph N/A   Clear
6:55 PM 73.4 °F - 62.6 °F 69% 29.94 in 10.0 mi South 11.5 mph 17.3 mph N/A   Partly Cloudy
7:15 PM 73.4 °F - 62.6 °F 69% 29.94 in 10.0 mi South 11.5 mph - N/A   Partly Cloudy
7:35 PM 73.4 °F - 62.6 °F 69% 29.94 in 10.0 mi SSE 15.0 mph 19.6 mph N/A   Clear
7:55 PM 71.6 °F - 62.6 °F 73% 29.94 in 10.0 mi South 13.8 mph 17.3 mph N/A   Clear
8:15 PM 71.6 °F - 62.6 °F 73% 29.94 in 10.0 mi SSE 12.7 mph - N/A   Clear
8:35 PM 71.6 °F - 62.6 °F 73% 29.94 in 10.0 mi SSE 11.5 mph - N/A   Clear
8:55 PM 69.8 °F - 62.6 °F 78% 29.94 in 10.0 mi SSE 12.7 mph 20.7 mph N/A   Clear
9:15 PM 69.8 °F - 62.6 °F 78% 29.94 in 10.0 mi South 12.7 mph - N/A   Clear
9:35 PM 69.8 °F - 62.6 °F 78% 29.94 in 10.0 mi South 10.4 mph - N/A   Clear
10:55 PM 68.0 °F - 62.6 °F 83% 29.93 in 10.0 mi South 11.5 mph - N/A   Clear
11:15 PM 66.2 °F - 62.6 °F 88% 29.94 in 10.0 mi South 8.1 mph - N/A   Clear
11:35 PM 66.2 °F - 62.6 °F 88% 29.94 in 10.0 mi South 10.4 mph 17.3 mph N/A   Mostly Cloudy
11:55 PM 68.0 °F - 62.6 °F 83% 29.94 in 10.0 mi South 10.4 mph - N/A   Overcast